Vorticity
5 7 6 7 7 8 8 9 8 10 12 10 8 8 9 8 4 5 6 -2 4 0 3 9 9 5 8 1 2 4 4 7 8 11 10 9 7 9 6 7 9 6 -3 1 -0
4 6 9 6 8 8 9 8 7 5 6 8 9 7 7 10 9 9 2 11 4 4 5 5 5 8 7 6 4 5 4 4 6 8 7 9 8 13 7 7 12 9 4 3 3
2 10 8 10 7 7 8 3 3 4 1 3 3 6 5 5 8 7 5 3 0 2 5 4 4 1 4 4 6 5 4 6 9 6 7 8 9 8 4 9 9 7 6 5 3
5 4 11 6 6 6 5 6 3 3 5 5 5 4 6 6 7 2 4 6 7 2 2 3 6 5 4 4 2 -1 10 10 4 5 2 9 6 9 6 12 9 9 8 7 8
5 3 1 4 12 6 3 1 1 1 4 5 5 4 6 10 6 9 2 11 9 6 5 8 10 5 2 4 6 11 6 6 9 8 14 14 12 16 7 10 12 20 11 8 7
2 5 6 6 4 10 13 11 3 3 2 7 8 2 0 3 -1 6 9 8 2 8 8 8 5 5 6 6 9 9 8 8 19 18 14 13 9 6 7 6 -1 6 10 14 8
3 -2 8 -5 8 -6 7 10 9 8 4 1 5 8 4 1 9 4 4 6 4 11 10 7 3 4 5 13 12 11 11 16 17 10 5 1 -2 7 12 7 4 11 14 21 17
5 20 2 1 14 5 1 3 10 15 8 1 5 -4 9 5 6 7 15 14 14 10 11 8 8 10 22 18 10 13 12 13 9 5 6 -4 8 12 16 16 24 21 22 15 13
9 -9 -5 -2 15 9 5 11 10 17 11 11 12 23 13 12 17 13 8 10 11 9 12 15 12 17 13 11 14 12 9 16 -3 9 10 8 -5 18 24 15 10 12 13 21 15
-1 -7 32 1 -1 4 18 14 15 11 10 16 12 3 5 1 11 13 12 10 11 14 15 12 13 16 14 12 12 7 11 3 3 13 2 12 6 12 15 18 11 10 12 13 8
16 22 -27 13 -11 3 -14 1 8 -11 -0 2 -0 8 9 11 14 11 11 15 13 11 13 9 13 14 6 9 7 7 5 7 13 12 4 10 12 9 16 19 12 7 11 12 31
12 12 14 14 7 11 -0 -17 -23 -4 6 -19 -17 2 14 16 15 11 12 12 11 12 11 11 18 5 7 7 5 8 6 12 7 6 7 7 11 18 17 12 11 20 13 10 4
13 19 16 14 9 9 16 22 23 21 17 21 14 23 9 17 11 10 6 10 13 14 10 7 6 10 9 4 9 9 7 2 11 4 0 8 12 16 17 19 18 24 20 7 10
20 13 10 7 15 13 12 6 10 3 7 16 21 8 18 9 9 8 18 13 13 8 9 8 11 7 8 9 6 4 8 7 4 2 1 8 12 24 18 20 13 16 6 14 24
14 9 8 16 20 27 12 3 15 23 15 21 14 14 11 10 13 19 11 9 8 8 12 12 7 6 8 5 4 7 4 2 3 4 -0 20 12 1 20 16 30 14 13 18 6
14 11 9 3 10 22 13 25 3 18 19 14 11 17 19 17 14 11 10 14 10 8 9 6 1 8 7 3 4 3 3 2 5 7 1 20 -0 0 22 14 26 19 16 15 15
19 1 3 -18 37 6 20 1 19 17 14 3 9 11 15 14 12 8 10 11 7 3 1 6 10 5 4 3 5 8 6 6 5 10 11 17 6 10 32 -4 29 39 5 -1 24
36 20 25 23 34 10 8 17 11 13 13 10 19 14 11 1 5 4 3 0 6 7 8 4 8 10 4 5 8 2 6 7 12 8 11 25 10 8 23 7 -14 43 21 15 8
27 18 4 26 16 14 25 24 7 14 11 20 9 16 7 8 12 6 5 8 10 9 10 10 7 7 8 12 7 16 1 12 6 4 11 8 9 9 29 51 -15 30 20 35 27
18 33 24 22 23 22 21 16 10 14 20 11 10 7 6 8 4 4 8 7 7 6 6 8 9 4 9 8 6 5 8 9 0 3 6 13 2 -6 13 -3 -2 46 27 6 -5
17 17 34 38 36 17 8 5 9 10 -2 3 9 8 15 8 8 7 6 7 8 6 7 6 7 4 6 8 9 11 10 -0 0 7 3 8 10 3 10 11 15 4 20 12 12
10 30 23 12 9 3 5 11 14 18 29 13 24 10 5 6 5 6 4 5 5 5 6 6 5 5 9 12 16 12 6 7 3 6 4 7 13 5 12 -17 16 19 11 15 25
11 8 4 9 7 8 7 18 28 6 5 7 5 7 6 7 6 5 5 5 6 10 10 7 8 11 11 17 15 23 3 10 2 4 1 -2 3 5 -10 12 13 10 23 3 24
26 18 14 15 11 12 22 0 5 7 5 5 6 6 7 7 7 6 6 8 11 10 8 9 13 12 14 20 23 22 17 -7 6 10 1 1 9 -13 10 -13 12 6 16 24 6
22 11 -2 7 18 13 5 6 6 6 7 7 7 7 8 7 4 5 11 10 8 8 10 15 13 11 18 26 25 32 25 11 8 11 -47 12 36 -37 32 8 1 -6 -16 21 14
3 5 10 13 5 4 9 8 4 5 6 7 8 9 7 3 7 11 7 9 14 18 13 14 21 24 28 26 19 16 35 33 7 -8 15 2 -7 17 -3 17 4 9 15 19 16
14 5 1 6 10 5 5 4 6 6 6 9 11 7 2 7 13 13 8 12 14 26 13 17 -1 4 -0 37 14 34 45 23 16 13 -23 -3 7 28 -10 16 6 14 -5 -33 2
Height
5780 5780 5780 5781 5781 5781 5782 5782 5782 5782 5782 5782 5783 5783 5783 5784 5785 5786 5787 5787 5785 5785 5785 5784 5782 5780 5780 5780 5778 5776 5778 5778 5778 5778 5778 5778 5776 5777 5776 5776 5778 5777 5774 5776 5777
5771 5772 5771 5771 5772 5773 5773 5773 5774 5774 5773 5774 5774 5774 5774 5775 5776 5776 5778 5776 5776 5775 5775 5774 5773 5772 5772 5771 5769 5768 5769 5770 5768 5766 5768 5767 5766 5768 5766 5768 5768 5767 5765 5764 5764
5761 5761 5762 5762 5762 5763 5764 5764 5764 5765 5765 5765 5765 5765 5765 5766 5767 5767 5766 5767 5765 5765 5765 5763 5762 5763 5763 5760 5759 5759 5759 5758 5758 5757 5757 5758 5757 5757 5757 5757 5759 5760 5759 5758 5757
5751 5751 5749 5751 5751 5752 5753 5755 5755 5754 5755 5755 5756 5756 5756 5757 5758 5756 5758 5757 5756 5755 5755 5754 5753 5753 5752 5750 5747 5748 5748 5748 5748 5746 5746 5747 5746 5749 5749 5750 5751 5751 5749 5748 5750
5737 5740 5739 5739 5740 5741 5742 5742 5742 5744 5744 5745 5746 5746 5747 5749 5747 5746 5748 5746 5745 5745 5744 5742 5742 5741 5740 5739 5737 5738 5739 5735 5735 5736 5737 5734 5736 5739 5740 5738 5740 5739 5738 5739 5738
5725 5726 5728 5728 5728 5729 5731 5730 5731 5731 5732 5733 5735 5736 5737 5738 5737 5738 5736 5734 5734 5733 5732 5731 5729 5728 5729 5728 5726 5727 5728 5726 5725 5725 5726 5719 5726 5726 5727 5726 5724 5722 5725 5728 5726
5711 5713 5714 5715 5716 5717 5718 5718 5719 5720 5720 5722 5723 5724 5726 5723 5725 5726 5724 5722 5722 5719 5719 5718 5717 5716 5717 5715 5715 5716 5717 5717 5716 5715 5715 5703 5719 5716 5714 5710 5709 5709 5709 5710 5713
5697 5699 5701 5702 5703 5704 5706 5706 5707 5706 5707 5709 5711 5712 5715 5711 5712 5712 5712 5710 5709 5707 5707 5705 5705 5704 5704 5704 5704 5703 5707 5707 5705 5701 5701 5689 5706 5703 5698 5694 5694 5694 5696 5695 5695
5681 5684 5685 5688 5689 5690 5692 5693 5693 5694 5695 5697 5699 5700 5701 5702 5700 5700 5699 5698 5697 5696 5695 5695 5695 5695 5693 5696 5694 5694 5696 5697 5696 5689 5691 5683 5684 5691 5688 5684 5680 5680 5680 5681 5684
5664 5669 5671 5673 5677 5679 5679 5680 5680 5681 5682 5684 5686 5687 5689 5689 5687 5687 5687 5686 5685 5684 5684 5686 5685 5685 5686 5684 5685 5683 5686 5686 5686 5683 5675 5679 5672 5674 5674 5671 5671 5668 5665 5667 5668
5647 5652 5654 5656 5660 5665 5665 5666 5668 5669 5669 5672 5675 5675 5676 5676 5674 5673 5675 5676 5675 5674 5675 5675 5676 5678 5675 5674 5673 5673 5676 5675 5678 5675 5666 5666 5662 5666 5661 5657 5656 5655 5652 5654 5655
5626 5630 5634 5637 5643 5647 5649 5651 5652 5653 5656 5659 5662 5662 5664 5663 5662 5662 5663 5665 5665 5666 5666 5668 5669 5667 5666 5666 5666 5665 5664 5666 5669 5666 5658 5656 5655 5654 5650 5646 5644 5644 5642 5644 5644
5607 5612 5616 5619 5624 5631 5634 5637 5636 5638 5642 5644 5647 5650 5649 5652 5651 5652 5653 5653 5655 5656 5658 5658 5662 5659 5659 5658 5658 5657 5657 5658 5658 5652 5651 5642 5643 5644 5641 5633 5632 5630 5627 5626 5631
5594 5596 5601 5604 5611 5615 5619 5620 5622 5625 5627 5631 5634 5636 5638 5640 5642 5641 5643 5645 5645 5646 5648 5650 5649 5649 5649 5651 5651 5651 5650 5647 5644 5641 5643 5637 5628 5636 5628 5622 5619 5618 5613 5615 5620
5580 5583 5586 5592 5595 5601 5603 5606 5608 5613 5614 5618 5620 5623 5624 5629 5631 5632 5633 5634 5635 5637 5641 5643 5642 5641 5643 5643 5642 5643 5637 5637 5636 5635 5634 5639 5622 5626 5619 5614 5611 5605 5606 5609 5612
5565 5568 5573 5578 5584 5587 5589 5591 5596 5602 5602 5606 5608 5611 5615 5617 5619 5620 5623 5623 5626 5630 5632 5633 5633 5636 5636 5635 5634 5634 5632 5630 5630 5628 5626 5627 5619 5616 5614 5610 5605 5602 5602 5604 5606
5554 5556 5560 5565 5570 5571 5576 5579 5584 5588 5591 5598 5599 5601 5602 5607 5611 5613 5614 5615 5617 5622 5622 5625 5627 5628 5628 5628 5626 5625 5624 5623 5624 5620 5620 5617 5614 5612 5608 5603 5601 5599 5599 5599 5600
5542 5542 5545 5550 5551 5558 5562 5567 5571 5577 5579 5585 5591 5592 5595 5599 5602 5602 5604 5606 5613 5614 5615 5618 5621 5620 5619 5621 5620 5618 5617 5616 5613 5612 5612 5611 5607 5604 5602 5597 5598 5594 5594 5594 5597
5528 5531 5535 5538 5540 5544 5550 5556 5561 5566 5573 5578 5580 5582 5585 5591 5597 5598 5598 5600 5603 5606 5610 5611 5614 5615 5612 5614 5613 5613 5610 5611 5605 5607 5602 5604 5602 5600 5597 5595 5594 5592 5591 5590 5591
5520 5521 5524 5528 5531 5533 5542 5547 5553 5560 5566 5570 5572 5576 5580 5584 5590 5593 5594 5594 5595 5595 5597 5600 5602 5603 5604 5603 5603 5602 5604 5602 5600 5598 5595 5596 5595 5594 5593 5591 5590 5587 5587 5585 5589
5515 5515 5516 5519 5525 5529 5536 5542 5547 5553 5560 5563 5566 5572 5575 5579 5582 5585 5585 5586 5586 5587 5589 5591 5592 5594 5596 5592 5593 5594 5594 5594 5594 5592 5588 5587 5589 5593 5590 5588 5587 5585 5585 5585 5587
5510 5513 5514 5517 5523 5525 5530 5538 5545 5550 5555 5559 5562 5566 5571 5575 5576 5577 5577 5578 5580 5580 5579 5579 5578 5580 5583 5582 5581 5581 5581 5584 5584 5586 5583 5582 5582 5588 5586 5585 5584 5583 5582 5583 5585
5506 5508 5511 5515 5520 5524 5529 5536 5542 5545 5550 5555 5560 5563 5566 5569 5571 5571 5571 5570 5571 5570 5569 5568 5565 5564 5566 5569 5568 5567 5566 5571 5574 5576 5577 5577 5578 5582 5580 5581 5581 5581 5581 5581 5582
5503 5506 5509 5513 5519 5525 5530 5533 5539 5544 5548 5553 5557 5559 5561 5562 5564 5565 5566 5564 5562 5559 5557 5556 5555 5551 5547 5552 5553 5553 5552 5558 5563 5565 5567 5571 5573 5576 5575 5576 5576 5577 5577 5578 5579
5498 5503 5508 5513 5519 5524 5528 5534 5538 5542 5546 5550 5552 5554 5555 5556 5557 5557 5555 5553 5551 5547 5545 5544 5543 5537 5534 5534 5535 5534 5537 5544 5549 5556 5558 5566 5565 5565 5569 5571 5571 5573 5575 5576 5577
5496 5502 5508 5513 5516 5522 5527 5531 5537 5541 5543 5545 5547 5548 5549 5549 5548 5545 5544 5543 5543 5539 5534 5532 5530 5526 5528 5524 5520 5517 5522 5529 5538 5548 5552 5557 5560 5562 5563 5565 5567 5569 5572 5572 5573
5497 5502 5507 5512 5517 5521 5526 5531 5535 5537 5539 5540 5541 5542 5541 5540 5539 5539 5537 5536 5534 5531 5526 5524 5522 5519 5520 5516 5513 5511 5514 5522 5534 5539 5547 5550 5554 5555 5558 5559 5561 5564 5568 5569 5570